Location: Newark
(52.8300°N, 8.0000°E)
Time: 17:11:52
(UTC+00:00)

STARLINK-1087 - Pass Details

Date: 01 February 2020
Orbit: 348 x 351 km, 53.0° (Epoch: 26 February)

Event Time Altitude Azimuth Distance (km) Brightness Sun altitude
Rises 17:24:26 0° 282° (WNW) 2,169 7.9 -11.0°
Reaches altitude 10° 17:26:44 10° 266° (W) 1,322 7.1 -11.4°
Maximum altitude 17:29:02 21° 214° (SW) 868 5.3 -11.7°
Drops below altitude 10° 17:31:20 10° 163° (SSE) 1,315 5.5 -12.0°
Enters shadow 17:33:33 - 146° (SE) 2,130 6.4 -12.4°
